Погода в Афанасьеве

Россия / Кировская область     58°51′53″N   53°15′04″E
темп.,
°C
ветер,
м/с
пор.,
м/с
влажн.,
%
обл.,
%
осадки,
мм/ч
давл.,
гПа
погр.,
м
17 мая, пн
пн1700:00+15ююз3695100 0.4 1014135
03:00+15юз2694100 2.2 1014177
06:00+17юз410824 0.0 1015393
09:00+22зюз59470 0.0 10151781
12:00+25з593854 0.0 10152706
15:00+23зсз484571 0.0 10141607
18:00+22зсз49491 0.0 1015735
21:00+15сз39790 0.0 1017300
18 мая, вт
вт1800:00+12сз2788100 0.0 1019200
03:00+10сз2694100 0.0 1020165
06:00+14с358039 0.0 1021509
09:00+17с356229 0.0 10211126
12:00+21ссв34455 0.0 10211503
15:00+21св34415 0.0 10211420
18:00+19всв24534 0.0 1022170
21:00+13в22693 0.0 102317
19 мая, ср
ср1900:00+11юв24815 0.0 102481
03:00+10юв27915 0.0 1025123
06:00+14ююв35745 0.0 1025373
09:00+19юв34495 0.0 1025950
12:00+22юв233527 0.0 10231340
15:00+23юв233196 0.0 10231625
18:00+20юв2351100 0.0 102264
21:00+14ююв2266100 0.0 102331
20 мая, чт
чт2000:00+12ююв226932 0.0 102314
03:00+11ю227373 0.0 102324
06:00+16ююз2459100 0.0 1023181
09:00+22ю123856 0.0 10221005
12:00+24ю232898 0.0 10211670
15:00+25ю2327100 0.0 10201682
18:00+21ююз2349100 0.0 101961
21:00+15ю11570 0.0 102011
21 мая, пт
пт2100:00+13ююз22712 0.0 102034
03:00+12ююз12770 0.0 102113
06:00+17ю245831 0.0 1020225
09:00+22ю3438100 0.0 10191159
12:00+24ююз353034 0.0 10182030
15:00+25ююз363191 0.0 10172604
18:00+22юв254759 0.0 1016136
21:00+17ю3105749 0.0 1016269